Tracking 19794 objects as of 22-Jul-2019
HD Live streaming from Space Station
objects crossing your sky now

ISIS 2

Track ISIS 2 now!
10-day predictions
ISIS 2 is classified as:


NORAD ID: 5104
Int'l Code: 1971-024A
Perigee: 1,365.1 km
Apogee: 1,430.7 km
Inclination: 88.2 °
Period: 113.6 minutes
Semi major axis: 7768 km
RCS: 1.9568 m2 (large)
Launch date: April 1, 1971
Source: Canada (CA)
Launch site: AIR FORCE WESTERN TEST RANGE (AFWTR)
aabbcc
Your satellite tracking list
Your tracking list is empty




NASA's NSSDC Master Catalog

Two Line Element Set (TLE):
1  5104U 71024A   19202.93185260 +.00000019 +00000-0 +44011-4 0  9996
2  5104 088.1687 358.8136 0042220 257.4262 218.2005 12.67841222235139
Source of the keplerian elements: AFSPC